Regional Weather Roundup
Issued by NWS

Home | Current Version | Previous Version | Graphics & Text | Print | Product List | Glossary Off
Versions: 1 2 3 4 5 6 7 8 9 10 11 12 13 14 15 16 17 18 19 20 21 22 23 24 25 26 27 28 29 30 31 32 33 34 35 36 37 38 39 40 41 42 43 44 45 46 47 48 49 50

000
ASUS43 KTOP 232159
RWRKS

WEATHER ROUNDUP FOR KANSAS
NATIONAL WEATHER SERVICE GOODLAND KS
400 PM CST THU FEB 23 2017

NOTE:  "FAIR" INDICATES FEW OR NO CLOUDS BELOW 12,000 FEET WITH NO
SIGNIFICANT WEATHER AND/OR OBSTRUCTIONS TO VISIBILITY.

KSZ001>006-013>018-027>032-041>047-232300-
NORTHWEST KANSAS

CITY           SKY/WX    TMP DP  RH WIND       PRES   REMARKS
GOODLAND       CLOUDY    31  30  96 NE14      29.54R WCI  21
HAYS             N/A     48  35  60 N24G32    29.43R
HILL CITY      CLOUDY    36  33  89 N26G32    29.52R WCI  24
RUSSELL        SUNNY     51  36  56 N25G36    29.39S
$$

KSZ061>065-074>080-084>089-232300-
SOUTHWEST KANSAS

CITY           SKY/WX    TMP DP  RH WIND       PRES   REMARKS
DODGE CITY     SUNNY     78  16   9 SW24G32   29.27F
ELKHART          N/A     69  18  14 NW25        N/A
GARDEN CITY    SUNNY     63  37  38 N36G43    29.35R
GREAT BEND     SUNNY     65  44  46 N25       29.32F
LIBERAL        SUNNY     77  19  11 W33G48    29.33R
$$

KSZ066>073-081>083-090>101-232300-
SOUTHEAST KANSAS

CITY           SKY/WX    TMP DP  RH WIND       PRES   REMARKS
CHANUTE        MOSUNNY   76  49  38 S16       29.37F
COFFEYVILLE    PTSUNNY   80  50  34 S12       29.35F
HUTCHINSON     SUNNY     72  47  40 SE9G22    29.31F
MEDICINE LODGE   N/A     74  45  35 SE8       29.28F
NEWTON         SUNNY     72  47  40 S13       29.34F
PARSONS        CLOUDY    80  48  32 S9G20     29.37F
WICHITA INTL   CLOUDY    72  47  40 S17       29.32F
WICHITA JABRA  MOSUNNY   73  47  39 S16G22    29.33F
WINFIELD       CLOUDY    74  53  48 S6        29.33F
$$

KSZ007>012-019>026-033>040-048>060-102>105-232300-
NORTHEAST KANSAS

CITY           SKY/WX    TMP DP  RH WIND       PRES   REMARKS
CONCORDIA      CLOUDY    44  37  76 NE17      29.48R
EMPORIA        CLOUDY    71  49  45 SE15      29.35F
LAWRENCE       PTSUNNY   60  47  61 NE15      29.41F
MANHATTAN      SUNNY     56  43  61 NE16      29.42S
OLATHE IND     CLOUDY    59  47  64 E15       29.41F
OLATHE EXE     CLOUDY    57  48  72 E12       29.41F
SALINA         SUNNY     65  44  46 N21       29.37F
TOPEKA BILLARD SUNNY     62  48  60 NE12      29.43R
TOPEKA FORBES  SUNNY     63  47  55 NE12      29.41S
$$



USA.gov is the U.S. government's official web portal to all federal, state and local government web resources and services.